Year,Month,Day,Hour,Minute,Value (Times are PST for temperature in C)
2014,06,15,00,00,11.30
2014,06,15,00,01,11.40
2014,06,15,00,02,11.40
2014,06,15,00,03,11.40
2014,06,15,00,04,11.50
2014,06,15,00,05,11.50
2014,06,15,00,06,11.60
2014,06,15,00,07,11.60
2014,06,15,00,08,11.60
2014,06,15,00,09,11.60
2014,06,15,00,10,11.60
2014,06,15,00,11,11.60
2014,06,15,00,12,11.70
2014,06,15,00,13,11.70
2014,06,15,00,14,11.70
2014,06,15,00,15,11.70
2014,06,15,00,16,11.70
2014,06,15,00,17,11.70
2014,06,15,00,18,11.70
2014,06,15,00,19,11.70
2014,06,15,00,20,11.70
2014,06,15,00,21,11.70
2014,06,15,00,22,11.70
2014,06,15,00,23,11.70
2014,06,15,00,24,11.70
2014,06,15,00,25,11.70
2014,06,15,00,26,11.70
2014,06,15,00,27,11.70
2014,06,15,00,28,11.70
2014,06,15,00,29,11.70
2014,06,15,00,30,11.70
2014,06,15,00,31,11.60
2014,06,15,00,32,11.70
2014,06,15,00,33,11.70
2014,06,15,00,34,11.70
2014,06,15,00,35,11.70
2014,06,15,00,36,11.60
2014,06,15,00,37,11.60
2014,06,15,00,38,11.60
2014,06,15,00,39,11.60
2014,06,15,00,40,11.60
2014,06,15,00,41,11.60
2014,06,15,00,42,11.60
2014,06,15,00,43,11.60
2014,06,15,00,44,11.60
2014,06,15,00,45,11.60
2014,06,15,00,46,11.60
2014,06,15,00,47,11.60
2014,06,15,00,48,11.60
2014,06,15,00,49,11.60
2014,06,15,00,50,11.60
2014,06,15,00,51,11.60
2014,06,15,00,52,11.60
2014,06,15,00,53,11.60
2014,06,15,00,54,11.60
2014,06,15,00,55,11.50
2014,06,15,00,56,11.50
2014,06,15,00,57,11.40
2014,06,15,00,58,11.40
2014,06,15,00,59,11.30
2014,06,15,01,00,11.30
2014,06,15,01,01,11.20
2014,06,15,01,02,11.20
2014,06,15,01,03,11.20
2014,06,15,01,04,11.20
2014,06,15,01,05,11.20
2014,06,15,01,06,11.10
2014,06,15,01,07,11.10
2014,06,15,01,08,11.00
2014,06,15,01,09,11.00
2014,06,15,01,10,10.90
2014,06,15,01,11,10.90
2014,06,15,01,12,10.80
2014,06,15,01,13,10.80
2014,06,15,01,14,10.80
2014,06,15,01,15,10.80
2014,06,15,01,16,10.80
2014,06,15,01,17,10.70
2014,06,15,01,18,10.70
2014,06,15,01,19,10.70
2014,06,15,01,20,10.70
2014,06,15,01,21,10.70
2014,06,15,01,22,10.70
2014,06,15,01,23,10.70
2014,06,15,01,24,10.70
2014,06,15,01,25,10.70
2014,06,15,01,26,10.60
2014,06,15,01,27,10.60
2014,06,15,01,28,10.60
2014,06,15,01,29,10.60
2014,06,15,01,30,10.60
2014,06,15,01,31,10.50
2014,06,15,01,32,10.50
2014,06,15,01,33,10.50
2014,06,15,01,34,10.50
2014,06,15,01,35,10.50
2014,06,15,01,36,10.40
2014,06,15,01,37,10.40
2014,06,15,01,38,10.40
2014,06,15,01,39,10.40
2014,06,15,01,40,10.40
2014,06,15,01,41,10.30
2014,06,15,01,42,10.30
2014,06,15,01,43,10.30
2014,06,15,01,44,10.20
2014,06,15,01,45,10.20
2014,06,15,01,46,10.20
2014,06,15,01,47,10.20
2014,06,15,01,48,10.10
2014,06,15,01,49,10.10
2014,06,15,01,50,10.10
2014,06,15,01,51,10.10
2014,06,15,01,52,10.00
2014,06,15,01,53,10.00
2014,06,15,01,54,10.00
2014,06,15,01,55,9.90
2014,06,15,01,56,9.90
2014,06,15,01,57,9.90
2014,06,15,01,58,9.80
2014,06,15,01,59,9.80
2014,06,15,02,00,9.80
2014,06,15,02,01,9.80
2014,06,15,02,02,9.80
2014,06,15,02,03,9.80
2014,06,15,02,04,9.80
2014,06,15,02,05,9.80
2014,06,15,02,06,9.80
2014,06,15,02,07,9.70
2014,06,15,02,08,9.70
2014,06,15,02,09,9.70
2014,06,15,02,10,9.70
2014,06,15,02,11,9.60
2014,06,15,02,12,9.60
2014,06,15,02,13,9.60
2014,06,15,02,14,9.50
2014,06,15,02,15,9.50
2014,06,15,02,16,9.40
2014,06,15,02,17,9.40
2014,06,15,02,18,9.40
2014,06,15,02,19,9.30
2014,06,15,02,20,9.30
2014,06,15,02,21,9.20
2014,06,15,02,22,9.20
2014,06,15,02,23,9.10
2014,06,15,02,24,9.10
2014,06,15,02,25,9.10
2014,06,15,02,26,9.00
2014,06,15,02,27,9.00
2014,06,15,02,28,9.00
2014,06,15,02,29,8.90
2014,06,15,02,30,8.90
2014,06,15,02,31,8.90
2014,06,15,02,32,8.90
2014,06,15,02,33,8.90
2014,06,15,02,34,8.90
2014,06,15,02,35,8.90
2014,06,15,02,36,8.90
2014,06,15,02,37,8.90
2014,06,15,02,38,8.90
2014,06,15,02,39,8.90
2014,06,15,02,40,8.90
2014,06,15,02,41,8.90
2014,06,15,02,42,8.90
2014,06,15,02,43,8.90
2014,06,15,02,44,8.80
2014,06,15,02,45,8.80
2014,06,15,02,46,8.80
2014,06,15,02,47,8.80
2014,06,15,02,48,8.80
2014,06,15,02,49,8.80
2014,06,15,02,50,8.80
2014,06,15,02,51,8.80
2014,06,15,02,52,8.80
2014,06,15,02,53,8.80
2014,06,15,02,54,8.80
2014,06,15,02,55,8.80
2014,06,15,02,56,8.80
2014,06,15,02,57,8.70
2014,06,15,02,58,8.70
2014,06,15,02,59,8.70
2014,06,15,03,00,8.70
2014,06,15,03,01,8.70
2014,06,15,03,02,8.70
2014,06,15,03,03,8.70
2014,06,15,03,04,8.70
2014,06,15,03,05,8.70
2014,06,15,03,06,8.70
2014,06,15,03,07,8.70
2014,06,15,03,08,8.70
2014,06,15,03,09,8.70
2014,06,15,03,10,8.60
2014,06,15,03,11,8.60
2014,06,15,03,12,8.60
2014,06,15,03,13,8.60
2014,06,15,03,14,8.60
2014,06,15,03,15,8.50
2014,06,15,03,16,8.50
2014,06,15,03,17,8.50
2014,06,15,03,18,8.40
2014,06,15,03,19,8.40
2014,06,15,03,20,8.40
2014,06,15,03,21,8.40
2014,06,15,03,22,8.40
2014,06,15,03,23,8.40
2014,06,15,03,24,8.30
2014,06,15,03,25,8.30
2014,06,15,03,26,8.30
2014,06,15,03,27,8.40
2014,06,15,03,28,8.40
2014,06,15,03,29,8.40
2014,06,15,03,30,8.40
2014,06,15,03,31,8.40
2014,06,15,03,32,8.40
2014,06,15,03,33,8.40
2014,06,15,03,34,8.40
2014,06,15,03,35,8.40
2014,06,15,03,36,8.30
2014,06,15,03,37,8.30
2014,06,15,03,38,8.30
2014,06,15,03,39,8.30
2014,06,15,03,40,8.30
2014,06,15,03,41,8.20
2014,06,15,03,42,8.20
2014,06,15,03,43,8.20
2014,06,15,03,44,8.10
2014,06,15,03,45,8.10
2014,06,15,03,46,8.10
2014,06,15,03,47,8.10
2014,06,15,03,48,8.10
2014,06,15,03,49,8.10
2014,06,15,03,50,8.10
2014,06,15,03,51,8.10
2014,06,15,03,52,8.10
2014,06,15,03,53,8.10
2014,06,15,03,54,8.10
2014,06,15,03,55,8.10
2014,06,15,03,56,8.10
2014,06,15,03,57,8.10
2014,06,15,03,58,8.10
2014,06,15,03,59,8.10
2014,06,15,04,00,8.10
2014,06,15,04,01,8.10
2014,06,15,04,02,8.00
2014,06,15,04,03,8.00
2014,06,15,04,04,7.90
2014,06,15,04,05,7.90
2014,06,15,04,06,7.90
2014,06,15,04,07,7.80
2014,06,15,04,08,7.80
2014,06,15,04,09,7.80
2014,06,15,04,10,7.80
2014,06,15,04,11,7.70
2014,06,15,04,12,7.70
2014,06,15,04,13,7.70
2014,06,15,04,14,7.70
2014,06,15,04,15,7.80
2014,06,15,04,16,7.80
2014,06,15,04,17,7.80
2014,06,15,04,18,7.80
2014,06,15,04,19,7.80
2014,06,15,04,20,7.80
2014,06,15,04,21,7.80
2014,06,15,04,22,7.80
2014,06,15,04,23,7.80
2014,06,15,04,24,7.80
2014,06,15,04,25,7.80
2014,06,15,04,26,7.80
2014,06,15,04,27,7.90
2014,06,15,04,28,8.00
2014,06,15,04,29,8.10
2014,06,15,04,30,8.10
2014,06,15,04,31,8.20
2014,06,15,04,32,8.20
2014,06,15,04,33,8.20
2014,06,15,04,34,8.20
2014,06,15,04,35,8.20
2014,06,15,04,36,8.30
2014,06,15,04,37,8.30
2014,06,15,04,38,8.40
2014,06,15,04,39,8.50
2014,06,15,04,40,8.50
2014,06,15,04,41,8.60
2014,06,15,04,42,8.60
2014,06,15,04,43,8.70
2014,06,15,04,44,8.70
2014,06,15,04,45,8.70
2014,06,15,04,46,8.80
2014,06,15,04,47,8.80
2014,06,15,04,48,8.90
2014,06,15,04,49,8.90
2014,06,15,04,50,9.00
2014,06,15,04,51,9.00
2014,06,15,04,52,9.10
2014,06,15,04,53,9.10
2014,06,15,04,54,9.10
2014,06,15,04,55,9.10
2014,06,15,04,56,9.20
2014,06,15,04,57,9.20
2014,06,15,04,58,9.20
2014,06,15,04,59,9.20
2014,06,15,05,00,9.20
2014,06,15,05,01,9.20
2014,06,15,05,02,9.20
2014,06,15,05,03,9.30
2014,06,15,05,04,9.30
2014,06,15,05,05,9.30
2014,06,15,05,06,9.30
2014,06,15,05,07,9.30
2014,06,15,05,08,9.30
2014,06,15,05,09,9.40
2014,06,15,05,10,9.40
2014,06,15,05,11,9.40
2014,06,15,05,12,9.40
2014,06,15,05,13,9.40
2014,06,15,05,14,9.40
2014,06,15,05,15,9.40
2014,06,15,05,16,9.50
2014,06,15,05,17,9.50
2014,06,15,05,18,9.60
2014,06,15,05,19,9.60
2014,06,15,05,20,9.60
2014,06,15,05,21,9.70
2014,06,15,05,22,9.70
2014,06,15,05,23,9.70
2014,06,15,05,24,9.70
2014,06,15,05,25,9.80
2014,06,15,05,26,9.80
2014,06,15,05,27,9.80
2014,06,15,05,28,9.90
2014,06,15,05,29,9.90
2014,06,15,05,30,9.90
2014,06,15,05,31,9.90
2014,06,15,05,32,9.90
2014,06,15,05,33,9.90
2014,06,15,05,34,9.90
2014,06,15,05,35,9.90
2014,06,15,05,36,9.90
2014,06,15,05,37,9.90
2014,06,15,05,38,10.00
2014,06,15,05,39,10.00
2014,06,15,05,40,10.10
2014,06,15,05,41,10.10
2014,06,15,05,42,10.10
2014,06,15,05,43,10.20
2014,06,15,05,44,10.20
2014,06,15,05,45,10.20
2014,06,15,05,46,10.20
2014,06,15,05,47,10.30
2014,06,15,05,48,10.30
2014,06,15,05,49,10.30
2014,06,15,05,50,10.40
2014,06,15,05,51,10.40
2014,06,15,05,52,10.40
2014,06,15,05,53,10.50
2014,06,15,05,54,10.50
2014,06,15,05,55,10.50
2014,06,15,05,56,10.60
2014,06,15,05,57,10.60
2014,06,15,05,58,10.60
2014,06,15,05,59,10.60
2014,06,15,06,00,10.60
2014,06,15,06,01,10.70
2014,06,15,06,02,10.70
2014,06,15,06,03,10.70
2014,06,15,06,04,10.80
2014,06,15,06,05,10.80
2014,06,15,06,06,10.80
2014,06,15,06,07,10.90
2014,06,15,06,08,10.90
2014,06,15,06,09,10.90
2014,06,15,06,10,11.00
2014,06,15,06,11,11.00
2014,06,15,06,12,11.00
2014,06,15,06,13,11.00
2014,06,15,06,14,11.10
2014,06,15,06,15,11.10
2014,06,15,06,16,11.10
2014,06,15,06,17,11.10
2014,06,15,06,18,11.10
2014,06,15,06,19,11.10
2014,06,15,06,20,11.20
2014,06,15,06,21,11.20
2014,06,15,06,22,11.20
2014,06,15,06,23,11.30
2014,06,15,06,24,11.30
2014,06,15,06,25,11.30
2014,06,15,06,26,11.30
2014,06,15,06,27,11.30
2014,06,15,06,28,11.30
2014,06,15,06,29,11.30
2014,06,15,06,30,11.30
2014,06,15,06,31,11.30
2014,06,15,06,32,11.30
2014,06,15,06,33,11.30
2014,06,15,06,34,11.40
2014,06,15,06,35,11.40
2014,06,15,06,36,11.40
2014,06,15,06,37,11.40
2014,06,15,06,38,11.50
2014,06,15,06,39,11.50
2014,06,15,06,40,11.50
2014,06,15,06,41,11.50
2014,06,15,06,42,11.50
2014,06,15,06,43,11.60
2014,06,15,06,44,11.60
2014,06,15,06,45,11.60
2014,06,15,06,46,11.60
2014,06,15,06,47,11.70
2014,06,15,06,48,11.70
2014,06,15,06,49,11.70
2014,06,15,06,50,11.80
2014,06,15,06,51,11.80
2014,06,15,06,52,11.80
2014,06,15,06,53,11.80
2014,06,15,06,54,11.70
2014,06,15,06,55,11.70
2014,06,15,06,56,11.70
2014,06,15,06,57,11.70
2014,06,15,06,58,11.70
2014,06,15,06,59,11.70
2014,06,15,07,00,11.70
2014,06,15,07,01,11.70
2014,06,15,07,02,11.70
2014,06,15,07,03,11.70
2014,06,15,07,04,11.70
2014,06,15,07,05,11.70
2014,06,15,07,06,11.70
2014,06,15,07,07,11.70
2014,06,15,07,08,11.70
2014,06,15,07,09,11.60
2014,06,15,07,10,11.60
2014,06,15,07,11,11.60
2014,06,15,07,12,11.60
2014,06,15,07,13,11.60
2014,06,15,07,14,11.60
2014,06,15,07,15,11.50
2014,06,15,07,16,11.50
2014,06,15,07,17,11.50
2014,06,15,07,18,11.50
2014,06,15,07,19,11.50
2014,06,15,07,20,11.40
2014,06,15,07,21,11.40
2014,06,15,07,22,11.40
2014,06,15,07,23,11.40
2014,06,15,07,24,11.40
2014,06,15,07,25,11.30
2014,06,15,07,26,11.30
2014,06,15,07,27,11.30
2014,06,15,07,28,11.30
2014,06,15,07,29,11.30
2014,06,15,07,30,11.30
2014,06,15,07,31,11.30
2014,06,15,07,32,11.20
2014,06,15,07,33,11.20
2014,06,15,07,34,11.20
2014,06,15,07,35,11.20
2014,06,15,07,36,11.20
2014,06,15,07,37,11.20
2014,06,15,07,38,11.10
2014,06,15,07,39,11.10
2014,06,15,07,40,11.10
2014,06,15,07,41,11.10
2014,06,15,07,42,11.10
2014,06,15,07,43,11.00
2014,06,15,07,44,11.00
2014,06,15,07,45,11.00
2014,06,15,07,46,11.00
2014,06,15,07,47,11.00
2014,06,15,07,48,11.00
2014,06,15,07,49,11.00
2014,06,15,07,50,11.00
2014,06,15,07,51,11.00
2014,06,15,07,52,11.00
2014,06,15,07,53,11.00
2014,06,15,07,54,11.00
2014,06,15,07,55,11.00
2014,06,15,07,56,11.00
2014,06,15,07,57,11.00
2014,06,15,07,58,11.00
2014,06,15,07,59,10.90
2014,06,15,08,00,10.90
2014,06,15,08,01,10.90
2014,06,15,08,02,10.90
2014,06,15,08,03,10.90
2014,06,15,08,04,10.90
2014,06,15,08,05,10.90
2014,06,15,08,06,10.90
2014,06,15,08,07,10.90
2014,06,15,08,08,10.90
2014,06,15,08,09,10.90
2014,06,15,08,10,10.90
2014,06,15,08,11,10.90
2014,06,15,08,12,10.90
2014,06,15,08,13,10.90
2014,06,15,08,14,10.90
2014,06,15,08,15,10.90
2014,06,15,08,16,10.90
2014,06,15,08,17,10.90
2014,06,15,08,18,10.90
2014,06,15,08,19,10.90
2014,06,15,08,20,10.90
2014,06,15,08,21,10.90
2014,06,15,08,22,11.00
2014,06,15,08,23,11.00
2014,06,15,08,24,11.00
2014,06,15,08,25,11.00
2014,06,15,08,26,11.00
2014,06,15,08,27,11.00
2014,06,15,08,28,11.00
2014,06,15,08,29,11.00
2014,06,15,08,30,11.00
2014,06,15,08,31,11.00
2014,06,15,08,32,11.00
2014,06,15,08,33,11.00
2014,06,15,08,34,11.00
2014,06,15,08,35,11.00
2014,06,15,08,36,11.00
2014,06,15,08,37,11.00
2014,06,15,08,38,11.00
2014,06,15,08,39,11.00
2014,06,15,08,40,11.00
2014,06,15,08,41,11.00
2014,06,15,08,42,11.00
2014,06,15,08,43,11.00
2014,06,15,08,44,11.00
2014,06,15,08,45,11.00
2014,06,15,08,46,11.00
2014,06,15,08,47,11.00
2014,06,15,08,48,11.00
2014,06,15,08,49,11.00
2014,06,15,08,50,11.00
2014,06,15,08,51,11.00
2014,06,15,08,52,11.10
2014,06,15,08,53,11.10
2014,06,15,08,54,11.10
2014,06,15,08,55,11.10
2014,06,15,08,56,11.10
2014,06,15,08,57,11.10
2014,06,15,08,58,11.10
2014,06,15,08,59,11.10
2014,06,15,09,00,11.20
2014,06,15,09,01,11.20
2014,06,15,09,02,11.30
2014,06,15,09,03,11.30
2014,06,15,09,04,11.30
2014,06,15,09,05,11.30
2014,06,15,09,06,11.30
2014,06,15,09,07,11.40
2014,06,15,09,08,11.40
2014,06,15,09,09,11.40
2014,06,15,09,10,11.50
2014,06,15,09,11,11.50
2014,06,15,09,12,11.50
2014,06,15,09,13,11.50
2014,06,15,09,14,11.50
2014,06,15,09,15,11.50
2014,06,15,09,16,11.60
2014,06,15,09,17,11.60
2014,06,15,09,18,11.70
2014,06,15,09,19,11.70
2014,06,15,09,20,11.80
2014,06,15,09,21,11.80
2014,06,15,09,22,11.80
2014,06,15,09,23,11.80
2014,06,15,09,24,11.90
2014,06,15,09,25,11.90
2014,06,15,09,26,12.00
2014,06,15,09,27,12.00
2014,06,15,09,28,12.10
2014,06,15,09,29,12.10
2014,06,15,09,30,12.10
2014,06,15,09,31,12.10
2014,06,15,09,32,12.10
2014,06,15,09,33,12.10
2014,06,15,09,34,12.10
2014,06,15,09,35,12.10
2014,06,15,09,36,12.10
2014,06,15,09,37,12.10
2014,06,15,09,38,12.20
2014,06,15,09,39,12.20
2014,06,15,09,40,12.20
2014,06,15,09,41,12.10
2014,06,15,09,42,12.10
2014,06,15,09,43,12.10
2014,06,15,09,44,12.10
2014,06,15,09,45,12.10
2014,06,15,09,46,12.10
2014,06,15,09,47,12.10
2014,06,15,09,48,12.20
2014,06,15,09,49,12.20
2014,06,15,09,50,12.30
2014,06,15,09,51,12.40
2014,06,15,09,52,12.40
2014,06,15,09,53,12.50
2014,06,15,09,54,12.60
2014,06,15,09,55,12.60
2014,06,15,09,56,12.50
2014,06,15,09,57,12.50
2014,06,15,09,58,12.50
2014,06,15,09,59,12.60
2014,06,15,10,00,12.60
2014,06,15,10,01,12.60
2014,06,15,10,02,12.60
2014,06,15,10,03,12.70
2014,06,15,10,04,12.70
2014,06,15,10,05,12.80
2014,06,15,10,06,12.90
2014,06,15,10,07,12.90
2014,06,15,10,08,12.90
2014,06,15,10,09,12.90
2014,06,15,10,10,12.80
2014,06,15,10,11,12.70
2014,06,15,10,12,12.70
2014,06,15,10,13,12.70
2014,06,15,10,14,12.80
2014,06,15,10,15,12.80
2014,06,15,10,16,12.90
2014,06,15,10,17,12.90
2014,06,15,10,18,12.80
2014,06,15,10,19,12.80
2014,06,15,10,20,12.80
2014,06,15,10,21,12.90
2014,06,15,10,22,13.00
2014,06,15,10,23,13.00
2014,06,15,10,24,13.00
2014,06,15,10,25,12.90
2014,06,15,10,26,12.90
2014,06,15,10,27,13.00
2014,06,15,10,28,13.10
2014,06,15,10,29,13.00
2014,06,15,10,30,13.10
2014,06,15,10,31,13.10
2014,06,15,10,32,13.10
2014,06,15,10,33,13.10
2014,06,15,10,34,13.10
2014,06,15,10,35,13.10
2014,06,15,10,36,13.20
2014,06,15,10,37,13.20
2014,06,15,10,38,13.20
2014,06,15,10,39,13.30
2014,06,15,10,40,13.30
2014,06,15,10,41,13.30
2014,06,15,10,42,13.30
2014,06,15,10,43,13.30
2014,06,15,10,44,13.20
2014,06,15,10,45,13.20
2014,06,15,10,46,13.20
2014,06,15,10,47,13.10
2014,06,15,10,48,13.10
2014,06,15,10,49,13.10
2014,06,15,10,50,13.10
2014,06,15,10,51,13.20
2014,06,15,10,52,13.20
2014,06,15,10,53,13.30
2014,06,15,10,54,13.40
2014,06,15,10,55,13.50
2014,06,15,10,56,13.60
2014,06,15,10,57,13.70
2014,06,15,10,58,13.70
2014,06,15,10,59,13.70
2014,06,15,11,00,13.80
2014,06,15,11,01,13.90
2014,06,15,11,02,13.90
2014,06,15,11,03,13.90
2014,06,15,11,04,13.90
2014,06,15,11,05,13.80
2014,06,15,11,06,13.80
2014,06,15,11,07,13.70
2014,06,15,11,08,13.70
2014,06,15,11,09,13.70
2014,06,15,11,10,13.80
2014,06,15,11,11,13.80
2014,06,15,11,12,13.90
2014,06,15,11,13,13.90
2014,06,15,11,14,13.90
2014,06,15,11,15,14.00
2014,06,15,11,16,14.10
2014,06,15,11,17,14.10
2014,06,15,11,18,14.10
2014,06,15,11,19,14.10
2014,06,15,11,20,14.10
2014,06,15,11,21,14.20
2014,06,15,11,22,14.30
2014,06,15,11,23,14.30
2014,06,15,11,24,14.40
2014,06,15,11,25,14.40
2014,06,15,11,26,14.40
2014,06,15,11,27,14.30
2014,06,15,11,28,14.40
2014,06,15,11,29,14.30
2014,06,15,11,30,14.30
2014,06,15,11,31,14.30
2014,06,15,11,32,14.30
2014,06,15,11,33,14.30
2014,06,15,11,34,14.30
2014,06,15,11,35,14.30
2014,06,15,11,36,14.30
2014,06,15,11,37,14.40
2014,06,15,11,38,14.40
2014,06,15,11,39,14.40
2014,06,15,11,40,14.50
2014,06,15,11,41,14.60
2014,06,15,11,42,14.70
2014,06,15,11,43,14.70
2014,06,15,11,44,14.70
2014,06,15,11,45,14.70
2014,06,15,11,46,14.80
2014,06,15,11,47,14.90
2014,06,15,11,48,15.00
2014,06,15,11,49,15.10
2014,06,15,11,50,15.20
2014,06,15,11,51,15.30
2014,06,15,11,52,15.30
2014,06,15,11,53,15.30
2014,06,15,11,54,15.30
2014,06,15,11,55,15.40
2014,06,15,11,56,15.50
2014,06,15,11,57,15.40
2014,06,15,11,58,15.30
2014,06,15,11,59,15.20
2014,06,15,12,00,15.20
2014,06,15,12,01,15.20
2014,06,15,12,02,15.20
2014,06,15,12,03,15.20
2014,06,15,12,04,15.30
2014,06,15,12,05,15.40
2014,06,15,12,06,15.30
2014,06,15,12,07,15.20
2014,06,15,12,08,15.10
2014,06,15,12,09,15.00
2014,06,15,12,10,15.00
2014,06,15,12,11,15.10
2014,06,15,12,12,15.00
2014,06,15,12,13,15.00
2014,06,15,12,14,14.90
2014,06,15,12,15,14.80
2014,06,15,12,16,14.70
2014,06,15,12,17,14.70
2014,06,15,12,18,14.70
2014,06,15,12,19,14.80
2014,06,15,12,20,14.80
2014,06,15,12,21,14.80
2014,06,15,12,22,14.80
2014,06,15,12,23,14.80
2014,06,15,12,24,14.80
2014,06,15,12,25,14.80
2014,06,15,12,26,14.80
2014,06,15,12,27,14.80
2014,06,15,12,28,14.70
2014,06,15,12,29,14.70
2014,06,15,12,30,14.60
2014,06,15,12,31,14.60
2014,06,15,12,32,14.60
2014,06,15,12,33,14.60
2014,06,15,12,34,14.70
2014,06,15,12,35,14.80
2014,06,15,12,36,15.00
2014,06,15,12,37,15.10
2014,06,15,12,38,15.30
2014,06,15,12,39,15.30
2014,06,15,12,40,15.30
2014,06,15,12,41,15.20
2014,06,15,12,42,15.10
2014,06,15,12,43,15.00
2014,06,15,12,44,14.90
2014,06,15,12,45,14.80
2014,06,15,12,46,14.80
2014,06,15,12,47,14.80
2014,06,15,12,48,14.80
2014,06,15,12,49,14.70
2014,06,15,12,50,14.80
2014,06,15,12,51,14.80
2014,06,15,12,52,14.80
2014,06,15,12,53,14.80
2014,06,15,12,54,14.80
2014,06,15,12,55,14.80
2014,06,15,12,56,14.80
2014,06,15,12,57,14.90
2014,06,15,12,58,15.00
2014,06,15,12,59,15.20
2014,06,15,13,00,15.30
2014,06,15,13,01,15.30
2014,06,15,13,02,15.50
2014,06,15,13,03,15.60
2014,06,15,13,04,15.80
2014,06,15,13,05,15.70
2014,06,15,13,06,15.70
2014,06,15,13,07,15.60
2014,06,15,13,08,15.60
2014,06,15,13,09,15.50
2014,06,15,13,10,15.50
2014,06,15,13,11,15.40
2014,06,15,13,12,15.40
2014,06,15,13,13,15.30
2014,06,15,13,14,15.30
2014,06,15,13,15,15.40
2014,06,15,13,16,15.40
2014,06,15,13,17,15.40
2014,06,15,13,18,15.40
2014,06,15,13,19,15.30
2014,06,15,13,20,15.30
2014,06,15,13,21,15.20
2014,06,15,13,22,15.20
2014,06,15,13,23,15.20
2014,06,15,13,24,15.30
2014,06,15,13,25,15.40
2014,06,15,13,26,15.50
2014,06,15,13,27,15.60
2014,06,15,13,28,15.70
2014,06,15,13,29,15.90
2014,06,15,13,30,15.90
2014,06,15,13,31,15.90
2014,06,15,13,32,15.90
2014,06,15,13,33,15.90
2014,06,15,13,34,15.90
2014,06,15,13,35,15.90
2014,06,15,13,36,15.90
2014,06,15,13,37,15.90
2014,06,15,13,38,15.90
2014,06,15,13,39,16.10
2014,06,15,13,40,16.30
2014,06,15,13,41,16.40
2014,06,15,13,42,16.30
2014,06,15,13,43,16.30
2014,06,15,13,44,16.20
2014,06,15,13,45,16.30
2014,06,15,13,46,16.50
2014,06,15,13,47,16.50
2014,06,15,13,48,16.70
2014,06,15,13,49,16.80
2014,06,15,13,50,16.80
2014,06,15,13,51,16.90
2014,06,15,13,52,16.90
2014,06,15,13,53,16.70
2014,06,15,13,54,16.60
2014,06,15,13,55,16.60
2014,06,15,13,56,16.50
2014,06,15,13,57,16.30
2014,06,15,13,58,16.30
2014,06,15,13,59,16.30
2014,06,15,14,00,16.30
2014,06,15,14,01,16.30
2014,06,15,14,02,16.30
2014,06,15,14,03,16.30
2014,06,15,14,04,16.30
2014,06,15,14,05,16.20
2014,06,15,14,06,16.10
2014,06,15,14,07,16.10
2014,06,15,14,08,16.00
2014,06,15,14,09,16.00
2014,06,15,14,10,16.10
2014,06,15,14,11,16.10
2014,06,15,14,12,16.10
2014,06,15,14,13,16.10
2014,06,15,14,14,16.10
2014,06,15,14,15,16.10
2014,06,15,14,16,16.10
2014,06,15,14,17,16.10
2014,06,15,14,18,16.10
2014,06,15,14,19,16.10
2014,06,15,14,20,16.10
2014,06,15,14,21,16.10
2014,06,15,14,22,16.10
2014,06,15,14,23,16.20
2014,06,15,14,24,16.20
2014,06,15,14,25,16.20
2014,06,15,14,26,16.10
2014,06,15,14,27,16.20
2014,06,15,14,28,16.20
2014,06,15,14,29,16.20
2014,06,15,14,30,16.10
2014,06,15,14,31,16.10
2014,06,15,14,32,16.10
2014,06,15,14,33,16.10
2014,06,15,14,34,16.10
2014,06,15,14,35,16.00
2014,06,15,14,36,16.10
2014,06,15,14,37,16.00
2014,06,15,14,38,16.00
2014,06,15,14,39,16.00
2014,06,15,14,40,16.00
2014,06,15,14,41,16.10
2014,06,15,14,42,16.10
2014,06,15,14,43,16.00
2014,06,15,14,44,16.00
2014,06,15,14,45,16.00
2014,06,15,14,46,16.00
2014,06,15,14,47,16.10
2014,06,15,14,48,16.10
2014,06,15,14,49,16.20
2014,06,15,14,50,16.20
2014,06,15,14,51,16.30
2014,06,15,14,52,16.50
2014,06,15,14,53,16.70
2014,06,15,14,54,16.90
2014,06,15,14,55,17.00
2014,06,15,14,56,17.10
2014,06,15,14,57,17.10
2014,06,15,14,58,17.30
2014,06,15,14,59,17.40
2014,06,15,15,00,17.40
2014,06,15,15,01,17.50
2014,06,15,15,02,17.50
2014,06,15,15,03,17.40
2014,06,15,15,04,17.30
2014,06,15,15,05,17.10
2014,06,15,15,06,17.00
2014,06,15,15,07,16.80
2014,06,15,15,08,16.80
2014,06,15,15,09,16.70
2014,06,15,15,10,16.70
2014,06,15,15,11,16.70
2014,06,15,15,12,16.60
2014,06,15,15,13,16.60
2014,06,15,15,14,16.50
2014,06,15,15,15,16.50
2014,06,15,15,16,16.40
2014,06,15,15,17,16.30
2014,06,15,15,18,16.30
2014,06,15,15,19,16.30
2014,06,15,15,20,16.30
2014,06,15,15,21,16.30
2014,06,15,15,22,16.20
2014,06,15,15,23,16.10
2014,06,15,15,24,16.10
2014,06,15,15,25,16.10
2014,06,15,15,26,16.20
2014,06,15,15,27,16.20
2014,06,15,15,28,16.30
2014,06,15,15,29,16.30
2014,06,15,15,30,16.30
2014,06,15,15,31,16.40
2014,06,15,15,32,16.50
2014,06,15,15,33,16.60
2014,06,15,15,34,16.60
2014,06,15,15,35,16.60
2014,06,15,15,36,16.60
2014,06,15,15,37,16.60
2014,06,15,15,38,16.50
2014,06,15,15,39,16.40
2014,06,15,15,40,16.30
2014,06,15,15,41,16.20
2014,06,15,15,42,16.20
2014,06,15,15,43,16.30
2014,06,15,15,44,16.30
2014,06,15,15,45,16.30
2014,06,15,15,46,16.30
2014,06,15,15,47,16.30
2014,06,15,15,48,16.30
2014,06,15,15,49,16.30
2014,06,15,15,50,16.20
2014,06,15,15,51,16.20
2014,06,15,15,52,16.20
2014,06,15,15,53,16.20
2014,06,15,15,54,16.20
2014,06,15,15,55,16.20
2014,06,15,15,56,16.20
2014,06,15,15,57,16.20
2014,06,15,15,58,16.20
2014,06,15,15,59,16.20
2014,06,15,16,00,16.30
2014,06,15,16,01,16.30
2014,06,15,16,02,16.30
2014,06,15,16,03,16.30
2014,06,15,16,04,16.40
2014,06,15,16,05,16.40
2014,06,15,16,06,16.40
2014,06,15,16,07,16.40
2014,06,15,16,08,16.40
2014,06,15,16,09,16.40
2014,06,15,16,10,16.40
2014,06,15,16,11,16.40
2014,06,15,16,12,16.50
2014,06,15,16,13,16.50
2014,06,15,16,14,16.50
2014,06,15,16,15,16.50
2014,06,15,16,16,16.40
2014,06,15,16,17,16.40
2014,06,15,16,18,16.30
2014,06,15,16,19,16.40
2014,06,15,16,20,16.40
2014,06,15,16,21,16.40
2014,06,15,16,22,16.40
2014,06,15,16,23,16.40
2014,06,15,16,24,16.40
2014,06,15,16,25,16.50
2014,06,15,16,26,16.60
2014,06,15,16,27,16.60
2014,06,15,16,28,16.60
2014,06,15,16,29,16.40
2014,06,15,16,30,16.40
2014,06,15,16,31,16.30
2014,06,15,16,32,16.30
2014,06,15,16,33,16.30
2014,06,15,16,34,16.40
2014,06,15,16,35,16.40
2014,06,15,16,36,16.40
2014,06,15,16,37,16.30
2014,06,15,16,38,16.30
2014,06,15,16,39,16.30
2014,06,15,16,40,16.20
2014,06,15,16,41,16.10
2014,06,15,16,42,16.10
2014,06,15,16,43,16.00
2014,06,15,16,44,16.00
2014,06,15,16,45,15.90
2014,06,15,16,46,15.90
2014,06,15,16,47,16.00
2014,06,15,16,48,16.00
2014,06,15,16,49,16.10
2014,06,15,16,50,16.20
2014,06,15,16,51,16.30
2014,06,15,16,52,16.30
2014,06,15,16,53,16.30
2014,06,15,16,54,16.20
2014,06,15,16,55,16.10
2014,06,15,16,56,16.00
2014,06,15,16,57,15.90
2014,06,15,16,58,15.80
2014,06,15,16,59,15.70
2014,06,15,17,00,15.70
2014,06,15,17,01,15.70
2014,06,15,17,02,15.70
2014,06,15,17,03,15.70
2014,06,15,17,04,15.70
2014,06,15,17,05,15.80
2014,06,15,17,06,15.80
2014,06,15,17,07,15.70
2014,06,15,17,08,15.70
2014,06,15,17,09,15.70
2014,06,15,17,10,15.70
2014,06,15,17,11,15.70
2014,06,15,17,12,15.70
2014,06,15,17,13,15.70
2014,06,15,17,14,15.60
2014,06,15,17,15,15.60
2014,06,15,17,16,15.60
2014,06,15,17,17,15.70
2014,06,15,17,18,15.60
2014,06,15,17,19,15.60
2014,06,15,17,20,15.60
2014,06,15,17,21,15.60
2014,06,15,17,22,15.50
2014,06,15,17,23,15.50
2014,06,15,17,24,15.50
2014,06,15,17,25,15.60
2014,06,15,17,26,15.60
2014,06,15,17,27,15.60
2014,06,15,17,28,15.60
2014,06,15,17,29,15.60